Location: Unspecified
(48.2082°N, 0.0000°E)
Time: 01:00:38
(UTC+00:00)

A-11 Canister half - Pass Details

Date: 21 June 2019
Orbit: 1514 x 1685 km, 47.2° (Epoch: 22 July)

Event Time Altitude Azimuth Distance (km) Brightness Sun altitude
Rises 18:04:43 0° 290° (WNW) 4,756 13.4 16.8°
Reaches altitude 10° 18:08:31 10° 277° (W) 3,743 13.3 16.2°
Maximum altitude 18:15:33 24° 228° (SW) 2,735 10.9 15.1°
Drops below altitude 10° 18:22:29 10° 179° (S) 3,669 10.8 14.0°
Sets 18:26:12 0° 166° (SSE) 4,642 11.2 13.4°
